This demonstration page uses our WeatherBlox Daily Observations layout. Learn more.

Left ArrowRight Arrow

30.21309, -93.2044

Hourly Observations for August 3, 2022

Temp ( °F °C ) Dew Point ( °F °C ) Humidity (%) Winds ( mph kmh ) Pressure ( in mb ) Visibility ( mi km ) Precip ( " mm )
12:15 am 00:15 Partly Cloudy 77 25.2 75 23.9 93 93 SSE 6 9 29.98 1015 10 16 0.00 0.00
12:35 am 00:35 Partly Cloudy 77 25.1 75 24 94 94 SE 6 9 29.98 1015 10 16 0.00 0.00
12:55 am 00:55 Clear 78 25.3 76 24.2 94 94 SSE 6 9 29.98 1015 10 16 0.00 0.00
1:15 am 01:15 Partly Cloudy 77 25.2 75 24.1 94 94 SSE 3 6 29.98 1015 10 16 0.00 0.00
1:35 am 01:35 Clear 77 25 75 23.9 94 94 SSE 5 7 29.97 1015 10 16 0.00 0.00
1:55 am 01:55 Mostly Cloudy 78 25.3 76 24.3 94 94 SSE 5 7 29.98 1015 10 16 0.00 0.00
2:15 am 02:15 Partly Cloudy 77 25.1 75 24 94 94 SE 5 7 29.97 1015 10 16 0.00 0.00
2:35 am 02:35 Clear 77 25.2 75 24.1 94 94 S 5 7 29.97 1015 10 16 0.00 0.00
2:55 am 02:55 Clear 79 26.2 76 24.5 90 90 SW 3 6 29.97 1015 10 16 0.00 0.00
3:15 am 03:15 Clear 80 26.5 76 24.5 89 89 SW 5 7 29.97 1015 10 16 0.00 0.00
3:35 am 03:35 Clear 79 26.3 76 24.4 89 89 SSW 5 7 29.97 1015 10 16 0.00 0.00
3:55 am 03:55 Clear 79 26.2 76 24.4 90 90 SSW 5 7 29.96 1015 10 16 0.00 0.00
4:15 am 04:15 Clear 79 26.2 76 24.3 89 89 Calm 29.96 1015 10 16 0.00 0.00
4:35 am 04:35 Clear with Mist and Fog 77 24.8 75 23.7 94 94 Calm 29.96 1015 7 11 0.00 0.00
4:55 am 04:55 Clear 77 24.8 75 23.8 94 94 Calm 29.96 1015 7 11 0.00 0.00
5:15 am 05:15 Partly Cloudy with Mist and Fog 76 24.5 74 23.5 94 94 Calm 29.96 1015 7 11 0.00 0.00
5:35 am 05:35 Partly Cloudy 77 24.9 75 24 95 95 Calm 29.96 1015 7 11 0.00 0.00
6:00 am 06:00 Partly Cloudy 77 25 75 24 94 94 Calm 29.97 1015 10 16 0.00 0.00
6:55 am 06:55 Mostly Sunny 81 27 75 24 84 84 Calm 29.99 1016 10 16 0.00 0.00
7:53 am 07:53 Mostly Sunny 82 28 79 26 89 89 Calm 29.99 1016 10 16 0.00 0.00
8:55 am 08:55 Mostly Cloudy with Showers 82 28 79 26 89 89 SSW 12 19 29.99 1016 7 11 0.00 0.00
9:50 am 09:50 Mostly Cloudy 88 31 75 24 66 66 SSW 12 19 30.00 1016 10 16 0.00 0.00
10:55 am 10:55 Mostly Cloudy 90 32 72 22 55 55 SW 14 22 30.00 1016 10 16 0.00 0.00
11:47 am 11:47 Partly Cloudy 90 32 73 23 59 59 SW 16 26 30.00 1016 10 16 0.00 0.00
12:51 pm 12:51 Mostly Cloudy 90 32 75 24 63 63 S 17 28 30.00 1016 10 16 0.00 0.00
1:50 pm 13:50 Mostly Cloudy 90 32 75 24 63 63 SSW 17 28 29.98 1015 10 16 0.00 0.00
2:55 pm 14:55 Mostly Cloudy 91 33 75 24 59 59 S 13 20 29.96 1015 10 16 0.00 0.00
3:45 pm 15:45 Mostly Cloudy 90 32 75 24 63 63 S 15 24 29.95 1014 10 16 0.00 0.00
4:51 pm 16:51 Partly Cloudy 88 31 75 24 66 66 S 7 11 29.97 1015 10 16 0.00 0.00
5:50 pm 17:50 Partly Cloudy 81 27 75 24 84 84 E 8 13 29.94 1014 10 16 0.00 0.00
6:51 pm 18:51 Partly Cloudy 81 27 75 24 84 84 SE 6 9 29.93 1014 10 16 0.00 0.00
7:52 pm 19:52 Mostly Sunny 82 28 77 25 84 84 SSW 7 11 29.92 1013 10 16 0.00 0.00
8:52 pm 20:52 Mostly Clear 81 27 77 25 89 89 S 6 9 29.93 1014 10 16 0.00 0.00
9:45 pm 21:45 Mostly Cloudy 81 27 77 25 89 89 ESE 6 9 29.95 1014 10 16 0.00 0.00
10:15 pm 22:15 Partly Cloudy 80 26.5 77 24.8 90 90 SSE 5 7 29.96 1015 10 16 0.00 0.00
10:35 pm 22:35 Clear 79 26.2 76 24.6 91 91 SSE 6 9 29.96 1015 10 16 0.00 0.00
10:55 pm 22:55 Clear 79 25.9 76 24.4 91 91 ESE 5 7 29.97 1015 10 16 0.00 0.00
11:15 pm 23:15 Clear 79 25.9 76 24.6 93 93 E 6 9 29.98 1015 10 16 0.00 0.00
11:35 pm 23:35 Clear 78 25.8 76 24.6 93 93 ESE 6 9 29.98 1015 10 16 0.00 0.00
11:55 pm 23:55 Partly Cloudy 78 25.7 76 24.6 94 94 ESE 6 9 29.97 1015 10 16 0.00 0.00

Powered by AerisWeather